Location: Unspecified
(0.0000°N, 0.0000°E)
Time: 23:53:10
(UTC+00:00)

S-56A Canister/Altair - Pass Details

Date: 04 October 2020
Orbit: 633 x 2499 km, 38.9° (Epoch: 28 October)

Event Time Altitude Azimuth Distance (km) Brightness Sun altitude
Rises 07:39:19 0° 205° (SSW) 3,828 10.9 27.6°
Reaches altitude 10° 07:42:03 10° 193° (SSW) 3,105 10.6 28.3°
Maximum altitude 07:48:53 31° 133° (SE) 2,433 11.2 30.0°
Drops below altitude 10° 07:58:21 10° 77° (ENE) 4,388 12.7 32.3°
Sets 08:03:01 0° 68° (ENE) 5,668 12.8 33.5°
